Weather in Priozernoye

Russia / Lipetsk Oblast     51°59′28″N   40°09′39″E
temp.,
°C
wind,
m/s
gust,
m/s
humid.,
%
clouds,
%
prec.,
mm/h
press.,
hPa
HPBL,
m
15 may, sat
sat1500:00+17se6138797 0.0 1010194
03:00+16sse389299 0.0 1011125
06:00+17s379458 0.4 1011187
09:00+19s61085100 0.4 1013519
12:00+22s4568100 1.1 1012595
15:00+24ssw56575 1.6 10121535
18:00+21sw47645 0.4 1013310
21:00+17wsw33780 0.4 101427
16 may, sun
sun1600:00+15ssw118243 0.0 101411
03:00+14sse118537 0.0 101511
06:00+16se11815 0.0 101533
09:00+21ese22651 0.0 1015461
12:00+24ese22513 0.0 10151292
15:00+25e22485 0.0 10141596
18:00+23ese3469100 0.5 1013168
21:00+18ese3383100 0.6 101335
17 may, mon
mon1700:00+16e347682 0.0 101348
03:00+15e498193 0.0 1013126
06:00+15ese3781100 0.0 1012131
09:00+22se51160100 0.0 1013387
12:00+25se71247100 0.0 1012831
15:00+26ese813533 0.0 10111472
18:00+24ese7146027 0.0 1010604
21:00+20ese71858100 0.0 1010406
18 may, tue
tue1800:00+19se6165550 0.0 1009364
03:00+15se51265100 0.0 1009212
06:00+15sse4117368 0.0 1009232
09:00+21sse577021 0.0 1009448
12:00+25sse5855100 0.0 10091143
15:00+25sse4653100 0.0 10081628
18:00+22sse2371100 0.4 100877
21:00+17ssw4990100 2.9 1009326
19 may, wed
wed1900:00+16s3692100 0.4 1009132
03:00+15sse3791100 0.6 1009137
06:00+15s499275 0.3 1008292
09:00+17ssw5784100 0.3 1008698
12:00+19ssw796798 0.5 10101422
15:00+20sw68608 0.6 10101509
18:00+18wsw477180 0.2 1010433
21:00+15wsw2282100 0.2 101120